Fairbanks, AK

3:39 AM AKST on November 22, 2019 (GMT -0900)
Fairbanks International

Weather History for PAFA - January, 1975

Change the Weather History Date:

Thursday, January 9, 1975

  Actual Average Record
Temperature  
Mean Temperature -40 °F -8 °F  
Max Temperature -36 °F 1 °F 40 °F (2002)
Min Temperature -43 °F -17 °F -56 °F (1952)
Degree Days  
Heating Degree Days 104 73  
Month to date heating degree days 653  
Since 1 July heating degree days 6925  
Cooling Degree Days 0 0  
Month to date cooling degree days 0  
Year to date cooling degree days 0  
Moisture  
Dew Point -47 °F    
Average Humidity 68    
Maximum Humidity 68    
Minimum Humidity 67    
Precipitation  
Precipitation 0.00 in 0.02 in 0.75 in (1907)
Month to date precipitation 0.19  
Year to date precipitation 0.19  
Snow  
Snow 0.00 in 0.30 in 7.50 in (1907)
Month to date snowfall 3.4  
Since 1 July snowfall 41.3  
Snow Depth -    
Sea Level Pressure  
Sea Level Pressure 30.37 in    
Wind  
Wind Speed 0 mph (North)    
Max Wind Speed 4 mph    
Max Gust Speed -    
Visibility 1 miles    
Events Fog , Snow    
T = Trace of Precipitation, MM = Missing Value Source: NWS Daily Summary

Daily Weather History Graph

Daily Weather History Graph

Search for Another Location

Airport or City:

Astronomy

Jan. 09, 1975 Rise Set
Actual Time 9:41 AM AHST 2:16 PM AHST
Civil Twilight 8:25 AM AHST 3:32 PM AHST
Nautical Twilight 7:17 AM AHST 4:40 PM AHST
Astronomical Twilight 6:16 AM AHST 5:40 PM AHST
Moon 7:50 AM AHST (1/9) 11:54 AM AHST (1/9)
Length of Visible Light 7h 06m
Length of Day
4h 34m
Waning Crescent, 6% of the Moon is Illuminated
Jan 9
Waning Crescent
Jan 12
New
Jan 20
First Quarter
Jan 27
Full
Feb 2
Last Quarter

Hourly Weather History & Observations

Time (AHST) Temp. Windchill Dew Point Humidity Pressure Visibility Wind Dir Wind Speed Gust Speed Precip Events Conditions
12:00 AM -36.0 °F - -43.1 °F 68% 30.32 in 0.8 mi Calm Calm - N/A Fog , Snow Light Snow
1:00 AM -36.9 °F - -44.0 °F 68% 30.32 in 0.8 mi Calm Calm - N/A Fog Fog
2:00 AM -38.9 °F - -45.9 °F 68% 30.32 in 0.8 mi Calm Calm - N/A Fog Fog
3:00 AM -40.0 °F - -47.0 °F 68% 30.33 in 0.8 mi Calm Calm - N/A Fog Fog
4:00 AM -40.0 °F - -47.0 °F 68% 30.32 in 0.8 mi Calm Calm - N/A Fog Fog
5:00 AM -36.9 °F - -44.0 °F 68% 30.33 in 0.8 mi Calm Calm - N/A Fog Fog
6:00 AM -38.0 °F - -45.0 °F 68% 30.33 in 0.8 mi Calm Calm - N/A Fog Fog
7:00 AM -38.9 °F - -45.9 °F 68% 30.34 in 0.5 mi Calm Calm - N/A Fog Fog
8:00 AM -38.0 °F - -45.0 °F 68% 30.34 in 0.5 mi Calm Calm - N/A Fog Fog
8:45 AM - - - N/A% 30.28 in 0.2 mi Calm Calm - N/A Fog Fog
9:00 AM -38.9 °F - -45.9 °F 68% 30.36 in 0.2 mi Calm Calm - N/A Fog Fog
10:00 AM - - - N/A% 30.37 in 0.2 mi Calm Calm - N/A Fog Fog
11:00 AM -42.0 °F - -49.0 °F 67% 30.38 in 0.2 mi Calm Calm - N/A Fog Fog
12:00 PM -43.1 °F - -50.1 °F 67% 30.38 in 0.2 mi Calm Calm - N/A Fog Fog
12:04 PM - - - N/A% 30.30 in 6.0 mi Calm Calm - N/A   Unknown
1:00 PM -42.0 °F - -49.0 °F 67% 30.40 in 0.1 mi Calm Calm - N/A Fog Fog
2:00 PM -41.1 °F - -47.9 °F 68% 30.40 in 0.2 mi Calm Calm - N/A Fog Fog
3:00 PM -42.0 °F -55.8 °F -49.0 °F 67% 30.40 in 0.2 mi North 3.5 mph - N/A Fog Fog
4:00 PM -40.0 °F - -47.0 °F 68% 30.40 in 0.2 mi Calm Calm - N/A Fog Fog
5:00 PM -41.1 °F - -47.9 °F 68% 30.40 in 0.2 mi Calm Calm - N/A Fog Fog
6:00 PM -41.1 °F -54.8 °F -47.9 °F 68% 30.40 in 0.2 mi North 3.5 mph - N/A Fog Fog
7:00 PM -41.1 °F - -47.9 °F 68% 30.40 in 0.2 mi Calm Calm - N/A Fog Fog
8:00 PM -42.0 °F -55.8 °F -49.0 °F 67% 30.40 in 0.2 mi North 3.5 mph - N/A Fog Fog
9:00 PM -42.0 °F - -49.0 °F 67% 30.42 in 0.2 mi Calm Calm - N/A Fog Fog
10:00 PM -41.1 °F - -47.9 °F 68% 30.42 in 0.2 mi Calm Calm - N/A Fog Fog
11:00 PM -42.0 °F - -49.0 °F 67% 30.43 in 0.2 mi Calm Calm - N/A Fog Fog